Regional Weather Roundup
Issued by NWS

Home | Current Version | Previous Version | Graphics & Text | Print | Product List | Glossary On
Versions: 1 2 3 4 5 6 7 8 9 10 11 12 13 14 15 16 17 18 19 20 21 22 23 24 25 26 27 28 29 30 31 32 33 34 35 36 37 38 39 40 41 42 43 44 45 46 47 48 49 50
000
ASUS43 KFSD 240202
RWRSD

WEATHER ROUNDUP FOR SOUTH DAKOTA
NATIONAL WEATHER SERVICE SIOUX FALLS SD
800 PM CST THU NOV 23 2017

NOTE: "FAIR" INDICATES FEW OR NO CLOUDS BELOW 12,000 FEET WITH NO
SIGNIFICANT WEATHER AND/OR OBSTRUCTIONS TO VISIBILITY.


SDZ001>005-009-010-012>017-240300-
NORTHWEST AND NORTH CENTRAL SOUTH DAKOTA

CITY           SKY/WX    TMP DP  RH WIND       PRES   REMARKS
FAITH            N/A     55  38  52 SW13      29.61F
MOBRIDGE       CLEAR     59  40  49 S9        29.53F
$$

SDZ012>016-024>037-041>051-057-063-072>074-240300-
SOUTHWEST AND SOUTH CENTRAL SOUTH DAKOTA

CITY           SKY/WX    TMP DP  RH WIND       PRES   REMARKS
RAPID CTY ARPT CLOUDY    52  32  46 W7        29.69F
PIERRE         CLEAR     60  39  45 SW13      29.60F
CUSTER         CLOUDY    49  31  49 SW6       29.83F
ELLSWORTH AFB  CLOUDY    54  32  43 W12       29.68F
PHILIP         CLEAR     51  38  60 W8        29.63F
PINE RIDGE     CLOUDY    55  36  48 CALM      29.75F
SPEARFISH      FAIR      63  32  31 SW18G29   29.70F
WINNER         FAIR      59  40  49 SW9       29.67F
$$

SDZ004>011-016>023-039-040-240300-
NORTHEAST SOUTH DAKOTA

CITY           SKY/WX    TMP DP  RH WIND       PRES   REMARKS
ABERDEEN       CLEAR     43  37  79 S12       29.56F
WATERTOWN      CLEAR     43  37  79 S9        29.60F
BROOKINGS      PTCLDY    47  37  68 S12       29.65F
SISSETON         N/A     56  40  55 SW18      29.52F
$$

SDZ017-020-022-023-036>040-048>070-240300-
SOUTHEAST SOUTH DAKOTA

CITY           SKY/WX    TMP DP  RH WIND       PRES   REMARKS
SIOUX FALLS    CLOUDY    56  41  57 S12       29.67F
HURON          PTCLDY    51  41  68 S9        29.60F
CHAMBERLAIN    CLEAR     54  41  62 SW6       29.65F
MITCHELL       MOCLDY    56  42  59 S9        29.65F
YANKTON        MOCLDY    60  42  51 SW9       29.69F
$$

ABBREVIATIONS USED IN REMARKS
   TC - TEMPERATURE IN CELSIUS
  WCI - WIND CHILL INDEX
   HX - HEAT INDEX
  VSB - VISIBILITY




USA.gov is the U.S. government's official web portal to all federal, state and local government web resources and services.